Location: Arbon
(43.0005°N, 0.7472°E)
Time: 03:26:53
(UTC+00:00)

Tiros 1 despin weight - Pass Details

Date: 29 July 2021
Orbit: 593 x 641 km, 48.2° (Epoch: 22 September)

Event Time Altitude Azimuth Distance (km) Brightness Sun altitude
Rises 20:11:47 0° 293° (WNW) 2,935 ? -8.7°
Reaches altitude 10° 20:14:12 10° 287° (WNW) 2,019 ? -9.1°
Maximum altitude 20:18:37 44° 216° (SW) 866 ? -9.7°
Enters shadow 20:22:31 13° 146° (SE) 1,820 ? -10.3°
